Regional Weather Roundup
Issued by NWS

Home | Current Version | Previous Version | Text Only | Print | Product List | Glossary Off
Versions: 1 2 3 4 5 6 7 8 9 10 11 12 13 14 15 16 17 18 19 20 21 22 23 24 25 26 27 28 29 30 31 32 33 34 35 36 37 38 39 40 41 42 43 44 45 46 47 48 49 50

000
ASUS45 KCYS 291310
RWRWY

WYOMING REGIONAL WEATHER ROUNDUP
NATIONAL WEATHER SERVICE CHEYENNE WY
600 AM MST THU JAN 29 2015

NOTE:  "FAIR" INDICATES FEW OR NO CLOUDS BELOW 12,000 FEET
WITH NO SIGNIFICANT WEATHER AND/OR OBSTRUCTIONS TO VISIBILITY.

WYZ001-291400-
YELLOWSTONE NATIONAL PARK

CITY           SKY/WX    TMP DP  RH WIND       PRES   REMARKS
LK YELLOWSTONE   N/A     15  12  88 CALM      30.43F
W YELLOWSTONE  NOT AVBL

$$
WYZ002>013-054>058-071-098>099-291400-
NORTHERN WYOMING

CITY           SKY/WX    TMP DP  RH WIND       PRES   REMARKS
JACKSON        MOCLDY    16  14  93 NW3       30.45R
CODY           FAIR      30  27  86 S7        30.40S WCI  23
GREYBULL       MOCLDY    29  29 100 S5        30.44S WCI  24
WORLAND        CLOUDY    30  27  88 NW3       30.43R
SHERIDAN       FAIR      24  20  84 CALM      30.43R
BUFFALO        FAIR      30  23  75 S8        30.42S WCI  22
GILLETTE       FAIR      23  18  81 SW3       30.43R
HULETT           N/A    N/A N/A N/A MISG        N/A
NEWCASTLE      FAIR      23  19  86 NW8       30.43S WCI  14

$$
WYZ014>020-022>026-101>103-291400-
CENTRAL WYOMING

CITY           SKY/WX    TMP DP  RH WIND       PRES   REMARKS
BIG PINEY      FAIR      11   7  84 NE8       30.43R WCI  -1
PINEDALE       PTSUNNY   12  12 100 CALM      30.44S
DUBOIS         PTSUNNY   19  14  79 NW9       30.41R WCI   9
LANDER         FAIR      30  25  81 W5        30.41R WCI  25
RIVERTON       FAIR      30  26  85 S3        30.42R
CASPER         FAIR      26  23  88 S6        30.44R WCI  19
DOUGLAS        FAIR      27  21  78 W3        30.46R

$$
WYZ021-027>030-104>119-291400-
SOUTHERN WYOMING

CITY           SKY/WX    TMP DP  RH WIND       PRES   REMARKS
EVANSTON       CLOUDY    29  26  89 E5        30.39S WCI  24
FORT BRIDGER   FAIR      28  28 100 W5        30.43S WCI  23
ROCK SPRINGS   MOCLDY    29  27  92 NE8       30.41S WCI  21
DIXON          FAIR      31  30  94 CALM      30.42S
RAWLINS        CLOUDY    30  26  85 E3        30.42S
SARATOGA       CLOUDY    30  28  93 CALM      30.42R
LARAMIE        CLOUDY    24  22  91 CALM      30.41S
CHEYENNE       CLOUDY    31  19  61 N10       30.42R WCI  22
TORRINGTON     FAIR      29  22  75 W5        30.44R WCI  24
PINE BLUFFS    FAIR      30  23  74 NW8       30.43S WCI  23

$$



USA.gov is the U.S. government's official web portal to all federal, state and local government web resources and services.